Content
SEND FEEDBACK

Daily
Averages
Monthly
Summary
United States of America

DEENWOOD, GEORGIA


Home > North America > United States > Georgia
Elevation: 151 feet     Latitude: 31 15N     Longitude: 082 24W

WEATHER
 
SELECT A DAY
Number of Records: 344,159;   Date Range: 7/11/95 - 10/20/14
 
SHARE

PRINT THIS DATA

[ ← Previous Day ]
WEATHER ALMANAC - JANUARY 31, 2013
[ Next Day → ]
[ °C ]   °F
Weather ElementAverageHighLow
Temperature48.7 °F57.2 °F (2:55 pm)37.4 °F (11:55 pm)
Dewpoint33.7 °F51.8 °F (12:35 am)28.4 °F (3:35 pm)
Humidity58.1 %88 % (12:35 am)36 % (2:55 pm)
Barometer30.10 in30.25 in (11:15 pm)29.87 in (12:35 am)
Wind Speed9.8 mph24.2 mph (2:55 am)
Wind Gust33.4 mph (3:15 am)
Weather ElementAverage
Visibility10 mi
Wind DirectionW (273 °)

Weather ElementTotal
Precipitation---
Heating Degree Days17.7 (Base 65)
Averaged from 70 records on January 31, 2013
WEATHER CONDITIONS BREAKOUT
WIND DIRECTION BREAKOUT
WEATHER BY HOUR - JANUARY 31, 2013
[ °C ]   °F
Local TimeTemperatureDewpointHumidityBarometerVisibilityWind DirectionWind SpeedGust SpeedPrecipitationEventsConditions
12:35 AM55.4 °F51.8 °F88 %29.87 in10.0 miWest (260°)10.4 mphOvercast
12:55 AM55.4 °F48.2 °F77 %29.88 in10.0 miWest (270°)12.7 mph19.6 mphOvercast
1:15 AM53.6 °F50.0 °F88 %29.89 in10.0 miWest (270°)9.2 mphOvercast
1:35 AM53.6 °F48.2 °F82 %29.89 in10.0 miWest (270°)11.5 mphOvercast
1:55 AM53.6 °F48.2 °F82 %29.90 in10.0 miWest (280°)10.4 mph13.8 mphOvercast
2:15 AM53.6 °F48.2 °F82 %29.91 in10.0 miWest (280°)13.8 mphOvercast
2:35 AM53.6 °F46.4 °F77 %29.91 in10.0 miWest (280°)10.4 mph20.7 mphMostly Cloudy
2:55 AM53.6 °F44.6 °F72 %29.92 in10.0 miWNW (300°)24.2 mph31.1 mphMostly Cloudy
3:15 AM51.8 °F39.2 °F62 %29.94 in10.0 miWNW (300°)19.6 mph33.4 mphMostly Cloudy
3:35 AM50.0 °F37.4 °F62 %29.96 in10.0 miWNW (290°)15.0 mph29.9 mphScattered Clouds
3:55 AM48.2 °F37.4 °F66 %29.97 in10.0 miWNW (290°)15.0 mph24.2 mphClear
4:35 AM48.2 °F37.4 °F66 %29.99 in10.0 miWNW (290°)11.5 mphClear
4:55 AM46.4 °F35.6 °F66 %29.99 in10.0 miWNW (290°)16.1 mph25.3 mph
5:15 AM46.4 °F35.6 °F66 %30.01 in10.0 miWNW (290°)12.7 mph20.7 mph
5:35 AM44.6 °F33.8 °F66 %30.02 in10.0 miWest (280°)12.7 mph17.3 mph
5:55 AM44.6 °F33.8 °F66 %30.03 in10.0 miWest (280°)11.5 mph17.3 mph
6:15 AM44.6 °F33.8 °F66 %30.04 in10.0 miWNW (300°)9.2 mph
6:35 AM42.8 °F33.8 °F70 %30.05 in10.0 miWNW (290°)10.4 mph
6:55 AM42.8 °F33.8 °F70 %30.06 in10.0 miWNW (290°)9.2 mph
7:15 AM42.8 °F33.8 °F70 %30.06 in10.0 miWNW (290°)9.2 mph
7:35 AM42.8 °F32.0 °F66 %30.08 in10.0 miWest (280°)9.2 mph16.1 mph
7:55 AM42.8 °F33.8 °F70 %30.09 in10.0 miWest (270°)5.8 mph
8:15 AM44.6 °F33.8 °F66 %30.10 in10.0 miWest (270°)5.8 mph
8:35 AM44.6 °F33.8 °F66 %30.11 in10.0 miWest (280°)10.4 mph
8:55 AM44.6 °F33.8 °F66 %30.11 in10.0 miWest (280°)12.7 mph19.6 mph
9:15 AM44.6 °F33.8 °F66 %30.12 in10.0 miWest (280°)11.5 mph19.6 mph
9:35 AM46.4 °F33.8 °F62 %30.13 in10.0 miNW (310°)9.2 mph17.3 mph
9:55 AM46.4 °F33.8 °F62 %30.13 in10.0 miWNW (300°)12.7 mph17.3 mph
10:15 AM48.2 °F33.8 °F58 %30.14 in10.0 miWest (280°)10.4 mph18.4 mphClear
10:35 AM48.2 °F33.8 °F58 %30.15 in10.0 miWNW (300°)10.4 mph17.3 mphClear
10:55 AM50.0 °F33.8 °F54 %30.15 in10.0 miWNW (300°)9.2 mph12.7 mphClear
11:15 AM50.0 °F32.0 °F50 %30.15 in10.0 miWNW (300°)11.5 mph18.4 mphClear
11:35 AM51.8 °F32.0 °F47 %30.15 in10.0 miNW (320°)11.5 mph18.4 mph
11:55 AM51.8 °F30.2 °F44 %30.14 in10.0 miWest (270°)11.5 mph18.4 mphClear
12:15 PM53.6 °F30.2 °F41 %30.14 in10.0 miWest (270°)10.4 mph18.4 mphClear
12:35 PM53.6 °F30.2 °F41 %30.14 in10.0 miWest (280°)10.4 mphClear
12:55 PM53.6 °F30.2 °F41 %30.14 in10.0 miNW (310°)10.4 mph20.7 mphClear
1:15 PM55.4 °F30.2 °F38 %30.13 in10.0 miNW (310°)15.0 mphClear
1:35 PM53.6 °F30.2 °F41 %30.13 in10.0 miWNW (300°)13.8 mph19.6 mphClear
1:55 PM55.4 °F30.2 °F38 %30.13 in10.0 miWNW (300°)16.1 mph24.2 mphClear
2:15 PM55.4 °F30.2 °F38 %30.12 in10.0 miWNW (290°)13.8 mph17.3 mphClear
2:35 PM55.4 °F30.2 °F38 %30.13 in10.0 miWNW (300°)10.4 mph19.6 mphClear
2:55 PM57.2 °F30.2 °F36 %30.13 in10.0 miWNW (290°)13.8 mph18.4 mphClear
3:15 PM55.4 °F30.2 °F38 %30.13 in10.0 miWNW (300°)15.0 mph25.3 mphClear
3:35 PM55.4 °F28.4 °F36 %30.13 in10.0 miWest (280°)17.3 mph20.7 mphClear
3:55 PM55.4 °F28.4 °F36 %30.13 in10.0 miWNW (290°)17.3 mph21.9 mphClear
4:15 PM55.4 °F28.4 °F36 %30.14 in10.0 miWNW (290°)13.8 mph20.7 mphClear
4:35 PM55.4 °F28.4 °F36 %30.14 in10.0 miNW (320°)9.2 mph18.4 mphClear
4:55 PM55.4 °F28.4 °F36 %30.14 in10.0 miWest (280°)12.7 mphClear
5:15 PM53.6 °F28.4 °F38 %30.15 in10.0 miWNW (290°)9.2 mphClear
5:35 PM53.6 °F28.4 °F38 %30.15 in10.0 miWNW (290°)9.2 mphClear
5:55 PM51.8 °F28.4 °F41 %30.16 in10.0 miWNW (290°)8.1 mphClear
6:15 PM50.0 °F28.4 °F43 %30.16 in10.0 miWest (280°)4.6 mphClear
6:35 PM48.2 °F28.4 °F46 %30.17 in10.0 miWest (270°)3.5 mphClear
6:55 PM46.4 °F32.0 °F57 %30.17 in10.0 miWest (260°)3.5 mphClear
7:15 PM46.4 °F32.0 °F57 %30.18 in10.0 miWSW (250°)3.5 mphClear
7:35 PM44.6 °F30.2 °F57 %30.19 in10.0 miWSW (250°)4.6 mph
7:55 PM42.8 °F30.2 °F61 %30.20 in10.0 miWSW (240°)4.6 mph
8:15 PM42.8 °F30.2 °F61 %30.20 in10.0 miWSW (250°)4.6 mph
8:35 PM42.8 °F32.0 °F66 %30.21 in10.0 miWest (260°)3.5 mph
8:55 PM42.8 °F32.0 °F66 %30.21 in10.0 miWSW (250°)3.5 mph
9:15 PM42.8 °F30.2 °F61 %30.22 in10.0 miCalm
9:35 PM42.8 °F32.0 °F66 %30.22 in10.0 miWSW (250°)3.5 mph
9:55 PM42.8 °F32.0 °F66 %30.23 in10.0 miWest (260°)3.5 mph
10:15 PM42.8 °F32.0 °F66 %30.24 in10.0 miWest (260°)4.6 mph
10:35 PM42.8 °F30.2 °F61 %30.24 in10.0 miWest (270°)4.6 mph
10:55 PM42.8 °F32.0 °F66 %30.24 in10.0 miWSW (250°)3.5 mph
11:15 PM42.8 °F30.2 °F61 %30.25 in10.0 miWest (270°)4.6 mph
11:35 PM41.0 °F30.2 °F65 %30.25 in10.0 miCalm
11:55 PM37.4 °F30.2 °F75 %30.24 in10.0 miSW (230°)3.5 mph
Hourly data recorded from KAYS, located miles away from Deenwood, Georgia







STORIES FROM OUR PARTNERS